Location: ??????
(31.2056°N, 45.3906°E)
Time: 13:49:56
(UTC+00:00)

IRS-1A Rocket - Pass Details

Date: 09 April 2020
Orbit: 851 x 931 km, 99.2° (Epoch: 04 June)

Event Time Altitude Azimuth Distance (km) Brightness Sun altitude
Exits shadow 16:16:39 - 154° (SSE) 3,187 6.8 -12.0°
Reaches altitude 10° 16:18:20 10° 152° (SSE) 2,541 6.3 -12.3°
Maximum altitude 16:23:53 60° 73° (ENE) 1,026 4.4 -13.4°
Drops below altitude 10° 16:29:35 10° 355° (N) 2,605 7.1 -14.6°
Sets 16:32:03 0° 352° (N) 3,560 7.8 -15.1°
